This is the latest recevied weather packets stored in our database for station/object KQ4PPF. If no packets are shown the sender has not sent any weather packets the latest 10 day(s).
| Time | Temp. | Humidity | Pressure | Rain* | Wind** | Luminosity | Snow |
|---|---|---|---|---|---|---|---|
| 1777963937 | 15° C | 72% | 1013 hPa | 0 mm | - | 0 W/m² | - |
| 1777963634 | 15° C | 71% | 1013.2 hPa | 0 mm | - | 0 W/m² | - |
| 1777963332 | 15° C | 71% | 1013.1 hPa | 0 mm | - | 0 W/m² | - |
| 1777963029 | 15.56° C | 70% | 1012.9 hPa | 0 mm | - | 0 W/m² | - |
| 1777962725 | 15.56° C | 71% | 1013.3 hPa | 0 mm | - | 0 W/m² | - |
| 1777962421 | 15.56° C | 70% | 1013.1 hPa | 0 mm | - | 0 W/m² | - |
| 1777962119 | 15.56° C | 70% | 1013.4 hPa | 0 mm | - | 0 W/m² | - |
| 1777961816 | 15.56° C | 69% | 1013.4 hPa | 0 mm | - | 0 W/m² | - |
| 1777961514 | 15.56° C | 69% | 1013.2 hPa | 0 mm | - | 0 W/m² | - |
| 1777961211 | 15.56° C | 70% | 1013.2 hPa | 0 mm | - | 0 W/m² | - |
| 1777960908 | 15.56° C | 71% | 1013.2 hPa | 0 mm | - | 0 W/m² | - |
| 1777960603 | 15.56° C | 72% | 1013.1 hPa | 0 mm | - | 0 W/m² | - |
| 1777960300 | 15.56° C | 72% | 1013.4 hPa | 0 mm | - | 0 W/m² | - |
| 1777959997 | 15° C | 74% | 1013.3 hPa | 0 mm | - | 0 W/m² | - |
| 1777959695 | 13.89° C | 77% | 1013.2 hPa | 0 mm | - | 0 W/m² | - |
| 1777959392 | 13.33° C | 81% | 1013.2 hPa | 0 mm | - | 0 W/m² | - |
| 1777959088 | 12.78° C | 86% | 1013.3 hPa | 0 mm | - | 0 W/m² | - |
| 1777958786 | 12.78° C | 87% | 1013.2 hPa | 0 mm | - | 0 W/m² | - |
| 1777958483 | 12.78° C | 87% | 1013.2 hPa | 0 mm | - | 0 W/m² | - |
| 1777958180 | 12.78° C | 87% | 1013.1 hPa | 0 mm | - | 0 W/m² | - |
| 1777957878 | 12.78° C | 87% | 1013 hPa | 0 mm | - | 0 W/m² | - |
| 1777957576 | 12.78° C | 87% | 1013.2 hPa | 0 mm | - | 0 W/m² | - |
| 1777957274 | 12.78° C | 87% | 1013.3 hPa | 0 mm | - | 0 W/m² | - |
| 1777956969 | 12.78° C | 86% | 1013.2 hPa | 0 mm | - | 0 W/m² | - |
| 1777956667 | 12.78° C | 85% | 1013.2 hPa | 0 mm | - | 0 W/m² | - |
* Rain latest hour (hover to see other rain measurements)
** Current wind speed in m/s (hover to see current wind gust speed)